Location: College Park
(38.9810°N, 76.9370°W)
Time: 19:02:28
(UTC-05:00)

OTV 5 (USA 277) - Pass Details

Date: 13 November 2017
Orbit: 404 x 417 km, 43.0° (Epoch: 07 September)

Event Time Altitude Azimuth Distance (km) Brightness Sun altitude
Exits shadow 04:29:16 18° 62° (ENE) 1,051 ? -27.1°
Drops below altitude 10° 04:30:18 10° 66° (ENE) 1,456 ? -26.9°
Sets 04:32:25 0° 70° (ENE) 2,317 ? -26.5°
